ジェディキ彗星

179P/Jedicke (2022)

English version
Home page
Updated on November 26, 2022

---------------------------------------------------------------------

・ プロフィール

・ 写真集

・ 軌道要素

Epoch 2022 Aug. 9.0 TT = JDT 2459800.5
T 2022 May 30.46763 TT                                  Rudenko
q   4.1177562            (2000.0)            P               Q
n   0.06821546     Peri.  296.94104     +0.56136520     -0.76845354
a   5.9321779      Node   115.51301     +0.82709812     +0.50846161
e   0.3058610      Incl.   19.89820     +0.02788915     +0.38851763
P  14.4
From 233 observations 2006 Oct. 22-2022 Oct. 4, mean residual 0".7.

・ 光度変化

        m1 = 3.0 + 5 logΔ + 20.0 log r

---------------------------------------------------------------------

軌道要素はM.P.E.C. 2022-T100に掲載されたものです。
光度グラフはComet for Windowsで作成したものです。

---------------------------------------------------------------------

Copyright(C) Seiichi Yoshida (comet@aerith.net). All rights reserved.